Flag for United Kingdom Weather past 2 weeks in Southend-on-Sea, England, United Kingdom

Now
64 °F

Low clouds.


Feels Like: 64 °F
Forecast: 59 / 71 °F
Wind: 8 mph from East

Location: Southend Airport-On-Sea

Current Time: Sep 16, 2014 at 9:03:51 PM

Latest Report: Sep 16, 2014 at 8:20 PM


Visibility: 2 mi

Pressure: 29.95 "Hg

Humidity: 88%

Dew point: 61 °F

Location of Southend-on-SeaLocation

Historic Weather in Southend-on-Sea — Graph

°F

Southend-on-Sea temperature yesterday

Maximum temperature yesterday: 68 °F (at 11:20 AM)
Minimum temperature yesterday: 50 °F (at 6:50 AM)
Average temperature yesterday: 60 °F

Past Weeks' High & Low Weather Summary

 TemperatureHumidityPressure
High72 °F (Sep 4, 1:50 PM)100% (Sep 7, 5:20 AM)30.33 "Hg (Sep 7, 5:20 AM)
Low46 °F (Sep 8, 5:20 AM)49% (Sep 8, 11:20 AM)29.92 "Hg (Sep 6, 5:50 AM)
Average61 °F80%30.11 "Hg
* Reported Sep 1 7:20 PM — Sep 16 7:50 PM, Southend-on-Sea, Weather by CustomWeather, © 2014

Note: Actual official high and low records may vary slightly from our data, if they occured in-between our weather recording intervals... More about our weather records

Advertising

Southend-on-Sea weather history for previous 24 hours

 ConditionsComfort  
Time TempWeatherWind HumidityBarometerVisibility
7:50 PM
Sep 16
64 °FLow clouds.7 mph88%29.95 "Hg1 mi
7:20 PM64 °FPartly sunny.7 mph88%29.95 "Hg1 mi
6:50 PM63 °FScattered clouds.9 mph94%29.95 "Hg2 mi
6:20 PM64 °FHaze.9 mph88%29.95 "Hg2 mi
5:50 PM64 °FHaze.12 mph88%29.95 "Hg2 mi
5:20 PM68 °FPassing clouds.12 mph78%29.95 "Hg4 mi
4:50 PM68 °FPassing clouds.10 mph78%29.95 "Hg4 mi
4:20 PM70 °FPassing clouds.10 mph69%29.95 "Hg4 mi
3:50 PM72 °FPassing clouds.9 mph65%29.95 "Hg4 mi
3:20 PM72 °FPassing clouds.9 mph65%29.95 "Hg4 mi
2:50 PM72 °FPassing clouds.9 mph65%29.95 "Hg4 mi
2:20 PM72 °FPassing clouds.9 mph65%29.98 "Hg4 mi
1:50 PM70 °FPassing clouds.10 mph73%29.98 "Hg4 mi
1:20 PM70 °FScattered clouds.10 mph69%29.98 "Hg4 mi
12:50 PM72 °FScattered clouds.10 mph69%29.98 "Hg4 mi
12:20 PM70 °FScattered clouds.10 mph73%29.98 "Hg4 mi
11:50 AM70 °FScattered clouds.10 mph73%29.98 "Hg4 mi
11:20 AM68 °FScattered clouds.9 mph78%29.98 "Hg3 mi
10:50 AM68 °FScattered clouds.8 mph78%29.98 "Hg3 mi
10:20 AM66 °FFog.10 mph88%29.98 "Hg3 mi
9:50 AM64 °FFog.5 mph94%29.98 "Hg2 mi
9:20 AM63 °FFog.7 mph100%30.01 "Hg1 mi
8:50 AM63 °FFog.8 mph94%29.98 "Hg0 mi
8:20 AM63 °FFog.6 mph94%29.98 "Hg0 mi
7:50 AM63 °FFog.5 mph94%29.98 "Hg0 mi
7:20 AM61 °FFog.7 mph94%29.98 "Hg0 mi
6:50 AM61 °FFog.5 mph94%29.98 "Hg0 mi
6:20 AM59 °FFog.3 mph94%29.98 "Hg0 mi
5:50 AM59 °FFog.5 mph94%29.98 "Hg0 mi
5:20 AM59 °FFog.2 mph94%29.98 "Hg1 mi
4:50 AM59 °FFog.3 mph94%29.98 "Hg1 mi
3:50 AM57 °FFog.3 mph94%29.98 "Hg1 mi
2:50 AM57 °FFog.3 mph94%29.98 "Hg2 mi
1:50 AM57 °FFog.2 mph94%29.98 "Hg2 mi
1:20 AM57 °FFog.5 mph94%29.98 "Hg2 mi
11:50 PM
Sep 15
54 °FFog.3 mph94%30.01 "Hg2 mi
11:20 PM52 °FFog.3 mph94%30.01 "Hg2 mi
10:50 PM52 °FFog.3 mph94%30.01 "Hg3 mi
10:20 PM54 °FLight fog.2 mph94%30.01 "Hg4 mi
9:20 PM55 °FLight fog.No wind88%30.01 "Hg4 mi
Weather by CustomWeather, © 2014

See weather overviewHow to use our weather pages